sat.trackr.live / text

‹ back to catalog

STARLINK-2739

NORAD 48639 · 2021-044B

PAYLOAD ACTIVE UNKNOWN

§ Identity

Operator
Country
US
Launch date
2021-05-26
Launch site
AFETR
Launch vehicle
Mass (kg)
RCS (m²)

Purposes: comms

External: N2YO · Heavens-Above · Gunter

§ Orbital elements

Epoch: 2026-09-19T21:52:38.822880Z

Period
94.01 min
Inclination
53.1580°
Eccentricity
0.0001412
Mean motion
15.31693404 rev/d
Perigee alt
469.8 km
Apogee alt
471.7 km
Semi-major
6,848.9 km
B*
1.1749e-4
RAAN
289.9786°
Arg perigee
90.5633°
Mean anomaly
269.5530°
Rev number
29,358

§ Raw data

STARLINK-27391 48639U 21044B   26262.91156045  .00003282  00000+0  11749-3 0  99992 48639  53.1580 289.9786 0001412  90.5633 269.5530 15.31693404293580

JSON: /api/v1/satellites/48639 · /tle

For live sub-satellite position, see the globe view (requires WebGL).

§ Visibility from observer

Set your observer location to see the next 7 days of passes ≥ 10°. The values pass through the URL so the page stays shareable.

No JS? Fill the form by hand. The geolocation button needs JavaScript.